sat.trackr.live / text

‹ back to catalog

STARLINK-36747

NORAD 67730 · 2026-026K

PAYLOAD ACTIVE UNKNOWN

§ Identity

Operator
Country
US
Launch date
2026-02-11
Launch site
AFWTR
Launch vehicle
Mass (kg)
RCS (m²)

Purposes: comms

External: N2YO · Heavens-Above · Gunter

§ Orbital elements

Epoch: 2026-05-25T03:45:26.270784Z

Period
93.91 min
Inclination
97.2835°
Eccentricity
0.0001050
Mean motion
15.33450032 rev/d
Perigee alt
464.8 km
Apogee alt
466.2 km
Semi-major
6,843.7 km
B*
5.9835e-4
RAAN
198.6631°
Arg perigee
110.0240°
Mean anomaly
250.1116°
Rev number
1,584

§ Raw data

STARLINK-367471 67730U 26026K   26145.15655406  .00019294  00000+0  59835-3 0  99962 67730  97.2835 198.6631 0001050 110.0240 250.1116 15.33450032 15847

JSON: /api/v1/satellites/67730 · /tle

For live sub-satellite position, see the globe view (requires WebGL).

§ Visibility from observer

Set your observer location to see the next 7 days of passes ≥ 10°. The values pass through the URL so the page stays shareable.

No JS? Fill the form by hand. The geolocation button needs JavaScript.